Terminal Aerodrome Forecast
Issued by NWS

Home | Current Version | Previous Version | Text Only | Print | Product List | Glossary On
Versions: 1 2 3 4 5 6 7 8 9 10 11 12 13 14 15 16
000
FTUS44 KHGX 230520
TAFSGR
TAF
KSGR 230520Z 2306/2406 VRB02KT P6SM FEW250
     FM231000 VRB02KT P6SM MIFG SCT150 SCT250
     FM231300 06007KT P6SM SCT120=

USA.gov is the U.S. government's official web portal to all federal, state and local government web resources and services.